Wind_Speed
11 11 12 12 12 12 13 13 12 12 11 11 10 11 11 11 11 11 12 12 13 14 14 14 14 14 14 15 15 15 15 15 16 16 16 17 17 17 17 18 19 19 20
11 12 12 12 12 13 14 14 13 13 13 13 12 12 12 11 11 11 12 12 12 13 14 13 13 14 14 15 15 15 15 15 15 16 16 17 17 18 18 19 20 20 20
11 12 12 12 13 13 14 14 15 15 14 14 14 13 13 12 12 12 12 13 13 13 13 13 14 14 15 15 15 15 15 16 16 16 16 17 18 18 18 19 19 20 20
12 13 13 13 14 14 15 15 16 17 16 15 15 14 13 13 13 13 14 14 14 14 14 14 14 15 15 15 16 16 16 16 17 17 17 17 17 17 18 18 19 20 20
13 14 14 15 15 15 16 16 17 17 16 15 15 15 14 14 13 14 14 14 14 14 15 15 16 16 16 16 16 16 16 16 16 17 17 17 17 18 18 19 20 20 21
15 15 15 16 17 17 16 17 17 18 18 16 16 15 14 14 14 14 15 14 15 15 15 16 16 16 16 16 16 16 16 16 17 17 17 17 18 18 19 20 20 21 22
17 16 17 17 17 17 18 19 19 19 18 17 17 16 15 15 15 14 14 16 16 16 16 16 16 16 16 17 17 17 17 17 17 18 18 18 18 19 20 20 21 22 23
19 18 18 18 18 19 19 20 21 20 19 18 17 16 16 15 15 15 15 16 16 16 16 16 16 17 17 18 18 17 17 18 18 18 18 19 20 20 21 22 23 23 24
21 21 20 20 20 20 21 21 22 21 19 19 18 17 17 16 16 16 17 17 17 17 17 17 18 18 18 18 18 18 19 19 19 20 20 20 21 21 22 23 24 25 25
23 22 21 21 20 21 22 22 22 22 21 20 19 18 18 17 17 18 18 18 18 18 18 18 19 19 19 19 19 20 20 20 20 21 21 21 22 22 23 23 24 25 26
25 25 24 23 23 23 23 23 22 22 21 21 20 20 19 19 19 19 19 19 19 19 20 20 20 20 20 20 21 21 21 21 21 21 22 22 23 23 23 24 25 25 26
27 26 25 25 25 24 24 23 23 22 22 22 21 21 21 21 20 20 21 20 20 21 21 21 21 21 21 22 22 22 23 23 23 23 23 23 23 23 24 25 26 26 27
29 28 27 27 26 26 26 26 24 24 24 24 23 23 22 22 21 21 22 22 21 21 22 22 23 23 22 22 22 23 23 24 24 24 24 24 24 25 26 27 27 28 28
30 29 29 30 29 28 27 27 26 26 25 24 23 22 22 23 22 22 23 22 22 23 23 23 22 22 22 23 23 23 24 25 25 26 26 25 26 26 27 28 28 28 29
32 32 31 31 30 29 29 30 29 27 25 25 24 23 23 23 23 23 24 24 24 24 24 24 24 24 24 24 24 25 25 26 26 26 26 26 27 28 28 28 28 29 29
34 33 32 32 31 31 31 30 29 28 27 25 24 24 25 25 25 25 25 25 25 25 25 25 25 25 26 26 27 27 27 26 27 27 27 28 28 28 29 29 29 29 30
34 33 33 33 32 32 31 30 28 27 25 24 24 25 26 26 26 27 26 25 25 26 26 26 27 27 27 28 28 28 27 28 28 28 29 29 29 29 30 30 30 30 31
34 33 33 33 33 32 31 30 29 29 28 26 26 26 27 28 28 28 27 27 27 27 27 27 28 28 28 28 28 28 28 29 29 30 30 30 30 30 31 31 31 31 31
34 34 33 32 31 31 31 30 30 30 29 27 28 28 28 29 28 28 28 28 28 28 28 28 29 29 29 29 29 29 30 30 31 31 31 31 31 31 31 31 31 31 31
35 34 33 32 32 30 30 29 29 30 30 29 28 29 30 30 29 29 29 29 29 29 29 30 29 29 30 31 31 30 30 31 31 31 31 31 31 31 31 31 31 31 30
35 33 32 30 30 30 29 30 30 31 32 31 30 31 30 31 31 30 30 30 30 30 30 31 30 31 31 31 32 32 32 32 32 32 32 32 32 32 32 31 31 31 31
33 33 31 30 30 30 30 30 31 31 31 32 32 33 33 33 32 32 31 31 32 32 32 32 32 32 32 32 33 33 33 32 32 32 32 32 33 33 32 32 32 32 32
33 33 32 32 32 31 31 31 32 32 32 33 34 34 34 34 33 33 33 33 34 34 33 33 33 33 34 33 33 32 32 32 33 33 33 33 33 33 33 32 32 32 32
33 33 33 32 32 32 31 32 33 33 33 34 34 35 34 34 34 34 34 34 34 34 34 34 34 34 34 34 34 34 33 33 33 33 33 34 34 33 32 32 32 32 33
34 34 33 32 32 31 31 31 31 31 32 33 33 33 33 33 34 34 35 35 35 35 36 36 36 35 35 35 35 35 34 34 35 35 34 34 34 33 33 32 32 32 33
34 33 32 31 32 32 31 31 31 31 31 32 32 32 33 33 34 34 34 35 35 36 36 36 35 35 35 36 36 36 36 36 36 35 35 34 33 33 33 33 33 33 34
Wind_Direction
347 346 348 350 351 349 348 346 342 339 333 327 323 318 312 306 302 301 302 300 298 297 297 297 297 299 299 300 300 299 296 296 297 299 297 294 292 290 293 295 294 295 295
338 337 338 340 342 343 343 343 340 335 331 327 323 319 314 309 305 303 304 303 304 301 300 301 301 301 304 305 304 300 297 297 299 300 296 292 290 293 295 296 296 297 296
330 331 331 331 333 335 337 338 336 333 330 325 321 319 315 311 309 307 305 304 306 306 304 303 302 304 305 305 304 303 301 297 297 297 297 295 293 294 295 297 298 297 297
320 324 325 325 325 327 328 330 330 330 328 324 319 317 315 310 308 308 307 305 305 306 305 304 304 304 306 305 303 302 301 300 299 297 297 297 296 298 299 299 298 298 299
311 315 320 322 321 320 321 323 325 326 323 322 320 316 316 312 307 306 307 307 305 305 305 304 304 303 305 306 305 303 302 302 301 299 299 299 299 299 300 301 299 300 301
303 307 316 319 318 317 315 315 318 319 319 316 317 314 311 308 306 307 308 307 305 304 305 305 304 304 305 304 303 303 303 303 303 301 301 301 301 301 301 302 301 301 302
296 301 306 312 313 313 312 311 312 313 313 313 314 309 305 302 302 305 305 305 303 303 304 304 305 306 306 305 304 304 304 304 303 302 302 302 302 302 303 303 302 302 304
290 296 302 306 309 308 308 308 308 308 307 306 308 307 305 303 304 305 304 304 303 303 304 304 305 306 305 305 304 304 303 303 303 303 301 300 301 301 302 302 303 304 305
286 290 295 300 303 305 306 307 306 304 305 305 303 303 304 305 305 304 305 305 305 305 304 304 303 304 305 306 305 304 303 303 302 301 300 300 300 301 301 301 302 303 305
284 288 290 294 299 301 302 304 306 300 300 301 301 301 301 302 303 302 303 303 302 303 304 304 304 304 304 304 304 304 303 303 303 302 301 300 300 300 301 302 303 303 304
280 286 288 290 292 296 298 300 303 300 299 296 296 298 298 298 299 299 300 300 301 301 301 303 304 305 304 303 303 302 302 302 302 302 301 301 300 300 301 302 303 304 304
277 283 285 287 289 291 293 295 297 299 299 298 296 296 297 296 296 298 298 298 299 301 303 304 306 307 305 303 302 301 302 303 303 302 302 302 302 302 302 303 304 304 304
274 278 280 284 285 287 291 294 294 295 297 298 295 295 294 295 294 296 298 298 299 301 303 304 305 305 304 304 303 302 302 303 303 303 303 303 302 302 302 303 304 304 303
272 275 278 281 284 287 289 291 291 292 292 293 293 292 293 294 294 294 296 296 298 299 300 302 303 303 302 302 303 303 303 303 303 303 303 302 302 302 303 303 303 304 304
272 273 277 279 281 282 285 287 288 288 290 290 289 288 289 292 291 291 292 294 295 296 297 298 298 300 301 301 301 302 303 304 303 302 302 302 303 303 303 303 303 303 304
270 273 275 276 277 279 282 285 285 286 287 286 285 285 286 288 289 289 289 291 292 293 294 296 297 298 299 299 300 301 301 301 301 301 302 302 302 302 303 303 303 303 304
270 271 274 274 274 276 279 282 285 284 284 284 283 283 283 284 287 290 290 289 291 292 293 294 296 296 297 297 298 299 299 299 300 300 301 301 302 302 303 303 303 303 303
268 271 273 274 273 273 276 278 280 281 282 281 281 282 283 285 286 288 288 288 290 291 294 295 295 295 295 296 297 297 297 299 300 301 300 300 301 302 303 303 303 303 303
269 271 272 274 275 274 274 276 278 278 280 281 281 282 285 286 287 287 288 289 290 291 293 294 294 294 294 294 295 296 296 298 299 300 300 300 300 301 302 302 303 303 302
271 272 272 273 273 272 272 273 274 276 277 280 282 284 286 286 285 285 286 288 290 291 292 293 292 293 294 294 294 294 295 296 297 298 299 300 300 301 301 302 302 303 302
271 272 270 271 271 272 272 273 274 275 276 277 280 282 284 284 283 284 285 286 288 291 292 292 292 292 293 294 293 292 293 296 296 296 297 299 301 301 301 301 301 301 302
270 272 269 268 270 272 273 274 275 275 274 276 279 280 281 281 281 282 283 285 286 288 289 289 289 291 292 292 293 292 292 294 295 295 296 298 300 301 301 300 300 300 301
269 271 271 270 270 271 272 273 273 273 274 277 279 279 279 279 280 281 282 283 283 284 285 286 287 288 290 291 291 292 292 293 293 294 295 297 299 299 299 299 299 300 301
268 269 270 271 270 269 271 272 273 273 275 278 278 278 278 279 280 280 281 281 282 282 283 284 285 287 288 289 290 291 291 292 292 293 295 296 297 298 298 298 299 300 300
269 269 268 268 268 270 273 274 275 275 277 278 279 279 280 281 281 281 282 282 282 282 282 284 285 286 287 288 289 289 290 291 292 293 294 294 295 295 296 298 299 300 301
268 267 267 269 270 271 273 275 276 277 278 280 281 281 282 282 283 283 283 283 283 283 283 283 284 285 285 287 288 290 290 289 290 292 292 293 294 295 296 297 298 299 299
Height
5911 5909 5907 5904 5902 5900 5898 5896 5894 5892 5890 5889 5887 5885 5884 5882 5880 5879 5878 5876 5875 5874 5873 5871 5869 5868 5866 5864 5862 5861 5859 5858 5856 5854 5853 5851 5850 5849 5847 5846 5845 5843 5841
5910 5908 5906 5903 5901 5899 5897 5895 5893 5890 5888 5887 5885 5883 5881 5879 5878 5876 5875 5873 5872 5870 5869 5868 5866 5865 5863 5861 5859 5857 5856 5854 5852 5851 5849 5847 5846 5845 5843 5842 5840 5838 5837
5908 5906 5904 5902 5900 5898 5896 5893 5891 5888 5886 5884 5882 5880 5878 5876 5875 5873 5872 5870 5869 5867 5866 5864 5863 5861 5859 5857 5856 5854 5852 5850 5848 5847 5845 5843 5842 5840 5839 5837 5835 5834 5832
5906 5905 5903 5901 5898 5896 5894 5891 5888 5886 5884 5881 5879 5878 5876 5874 5872 5870 5869 5867 5866 5864 5863 5861 5859 5858 5856 5854 5852 5850 5848 5846 5844 5843 5841 5839 5837 5836 5834 5832 5831 5829 5828
5904 5902 5901 5899 5896 5894 5891 5889 5886 5884 5881 5879 5877 5875 5872 5871 5869 5867 5866 5864 5862 5861 5859 5858 5856 5854 5852 5850 5848 5846 5844 5842 5840 5839 5837 5835 5833 5831 5830 5828 5826 5824 5822
5901 5900 5898 5896 5893 5891 5889 5886 5884 5881 5878 5876 5873 5871 5869 5867 5866 5864 5862 5861 5859 5857 5856 5854 5852 5850 5848 5846 5844 5842 5841 5839 5837 5835 5833 5831 5829 5827 5825 5823 5822 5820 5818
5898 5896 5895 5892 5890 5888 5885 5883 5880 5878 5875 5872 5870 5867 5865 5863 5862 5860 5859 5857 5855 5853 5852 5850 5848 5846 5844 5842 5840 5838 5836 5834 5832 5831 5829 5827 5825 5823 5821 5819 5816 5814 5812
5893 5892 5891 5889 5886 5884 5882 5879 5876 5874 5871 5869 5866 5864 5862 5860 5858 5857 5855 5854 5852 5850 5848 5846 5844 5842 5840 5838 5836 5834 5832 5830 5828 5826 5824 5822 5820 5818 5816 5813 5811 5809 5806
5888 5887 5886 5884 5882 5880 5878 5875 5872 5869 5867 5865 5863 5861 5858 5857 5855 5854 5852 5850 5848 5846 5844 5842 5840 5838 5836 5834 5832 5829 5827 5825 5823 5821 5819 5817 5814 5812 5810 5808 5805 5803 5800
5883 5882 5881 5879 5877 5875 5873 5870 5867 5864 5862 5861 5859 5857 5855 5853 5851 5849 5848 5846 5844 5842 5840 5837 5835 5833 5831 5829 5827 5824 5822 5820 5818 5815 5813 5811 5809 5806 5804 5802 5799 5796 5793
5877 5876 5875 5873 5872 5870 5867 5865 5862 5860 5858 5856 5854 5852 5850 5849 5847 5845 5843 5841 5839 5837 5835 5833 5830 5828 5826 5823 5821 5819 5817 5814 5812 5810 5807 5805 5802 5800 5798 5795 5792 5790 5787
5870 5869 5868 5867 5865 5863 5861 5859 5857 5854 5853 5851 5849 5847 5845 5843 5841 5840 5838 5836 5834 5832 5830 5827 5825 5822 5820 5818 5815 5813 5811 5809 5806 5803 5801 5799 5796 5794 5791 5789 5786 5783 5780
5863 5863 5862 5860 5858 5857 5855 5853 5850 5848 5847 5845 5843 5841 5840 5838 5836 5834 5833 5831 5829 5827 5825 5822 5819 5817 5815 5812 5810 5807 5805 5803 5800 5797 5795 5792 5790 5787 5785 5782 5779 5776 5773
5856 5855 5854 5852 5850 5849 5848 5846 5844 5842 5840 5838 5837 5835 5834 5832 5830 5828 5827 5825 5823 5821 5819 5816 5814 5811 5809 5806 5804 5801 5799 5796 5793 5791 5788 5786 5783 5780 5778 5775 5772 5769 5766
5847 5846 5845 5844 5843 5842 5840 5838 5837 5835 5833 5831 5830 5828 5827 5826 5824 5822 5820 5819 5817 5815 5812 5810 5808 5805 5803 5800 5798 5795 5792 5790 5787 5784 5781 5778 5776 5773 5770 5767 5764 5761 5758
5837 5837 5836 5835 5835 5834 5832 5830 5828 5827 5825 5823 5822 5821 5820 5819 5817 5816 5814 5812 5810 5808 5806 5803 5801 5798 5796 5793 5791 5788 5785 5783 5780 5777 5774 5771 5768 5765 5763 5760 5756 5753 5750
5828 5827 5827 5826 5826 5825 5823 5822 5820 5818 5817 5815 5814 5814 5813 5812 5810 5809 5807 5805 5803 5801 5799 5796 5794 5791 5788 5786 5783 5780 5778 5775 5772 5770 5767 5764 5761 5758 5755 5752 5749 5745 5742
5817 5817 5817 5817 5816 5815 5814 5813 5812 5811 5810 5808 5807 5806 5805 5804 5803 5801 5799 5797 5795 5793 5791 5788 5786 5783 5780 5778 5775 5773 5770 5767 5765 5762 5759 5756 5753 5750 5746 5743 5740 5737 5733
5807 5807 5807 5807 5806 5805 5804 5804 5804 5803 5802 5801 5800 5798 5797 5796 5795 5793 5791 5789 5787 5785 5783 5780 5777 5775 5772 5770 5767 5765 5762 5759 5757 5754 5751 5748 5744 5741 5738 5735 5732 5728 5725
5797 5797 5796 5796 5796 5795 5795 5795 5795 5794 5793 5793 5792 5790 5788 5787 5786 5784 5783 5781 5779 5776 5774 5772 5769 5767 5764 5762 5759 5756 5754 5751 5748 5745 5742 5739 5736 5733 5730 5726 5723 5720 5716
5787 5786 5786 5785 5786 5786 5786 5786 5785 5784 5784 5784 5783 5781 5780 5778 5777 5775 5774 5772 5770 5768 5765 5763 5760 5758 5755 5753 5750 5748 5745 5742 5739 5736 5734 5731 5728 5724 5721 5718 5715 5711 5708
5776 5776 5776 5776 5776 5776 5777 5776 5776 5775 5775 5774 5773 5771 5770 5769 5767 5766 5764 5762 5760 5758 5756 5754 5751 5749 5746 5744 5741 5738 5736 5733 5730 5727 5725 5722 5719 5715 5712 5709 5706 5703 5699
5766 5766 5766 5766 5766 5766 5766 5766 5765 5765 5764 5763 5762 5761 5760 5759 5757 5756 5754 5752 5751 5749 5747 5744 5742 5739 5737 5734 5732 5729 5727 5724 5721 5718 5715 5712 5709 5706 5703 5700 5697 5694 5690
5755 5756 5756 5756 5756 5756 5756 5756 5755 5754 5754 5752 5751 5750 5749 5748 5747 5745 5744 5742 5740 5739 5736 5734 5732 5730 5727 5725 5722 5720 5717 5714 5711 5708 5706 5703 5700 5697 5694 5691 5688 5684 5681
5745 5745 5745 5745 5746 5746 5746 5745 5745 5744 5743 5742 5741 5739 5738 5737 5736 5734 5733 5732 5730 5728 5725 5723 5721 5719 5717 5714 5712 5709 5707 5704 5701 5699 5696 5693 5690 5687 5684 5681 5678 5675 5671
5735 5735 5735 5735 5735 5736 5736 5735 5734 5733 5732 5731 5730 5729 5727 5726 5725 5724 5722 5720 5718 5716 5714 5712 5710 5708 5706 5704 5701 5699 5696 5694 5691 5688 5685 5683 5680 5677 5674 5671 5668 5665 5661